Regional Weather Roundup
Issued by NWS Little Rock, AR

Home | Current Version | Previous Version | Text Only | Print | Product List | Glossary On
Versions: 1 2 3 4 5 6 7 8 9 10 11 12 13 14 15 16 17 18 19 20 21 22 23 24 25 26 27 28 29 30 31 32 33 34 35 36 37 38 39 40 41 42 43 44 45 46 47 48
000
ASUS44 KLZK 040805
RWRLZK

WEATHER ROUNDUP FOR ARKANSAS
NATIONAL WEATHER SERVICE LITTLE ROCK AR
300 AM CDT TUE AUG 04 2015

NOTE: "FAIR" INDICATES FEW OR NO CLOUDS BELOW 12,000 FEET WITH NO
SIGNIFICANT WEATHER AND/OR OBSTRUCTIONS TO VISIBILITY.

ARZ001-003-010-029-040900-
NORTHWEST ARKANSAS

CITY           SKY/WX    TMP DP  RH WIND       PRES   REMARKS
FAYETTEVILLE   CLEAR     67  67 100 CALM      29.98S
FORT SMITH     CLEAR     75  70  84 E5        29.93S
HARRISON       CLEAR     69  67  93 CALM      29.99S
BENTONVILLE    CLEAR     72  66  83 CALM      29.98S
ROGERS         CLEAR     72  71  97 CALM      29.99S
SILOAM SPGS    CLEAR     72  64  78 E5        29.96S
HIGHFILL       CLEAR     70  69  97 CALM      29.97F
$$

ARZ004-005-016-040900-
NORTH CENTRAL ARKANSAS

CITY           SKY/WX    TMP DP  RH WIND       PRES   REMARKS
BATESVILLE     CLEAR     73  70  88 CALM      29.94S
FLIPPIN        CLEAR     73  66  78 CALM      29.94S
MTN HOME       CLEAR     72  70  93 CALM      29.96S
$$

ARZ040-041-040900-
WEST CENTRAL ARKANSAS

CITY           SKY/WX    TMP DP  RH WIND       PRES   REMARKS
MENA           CLEAR     70  64  83 CALM      29.98S
MOUNT IDA      CLEAR     70  67  90 CALM      29.94S
$$

ARZ009-017-025-026-028-040900-
NORTHEAST ARKANSAS

CITY           SKY/WX    TMP DP  RH WIND       PRES   REMARKS
JONESBORO      CLEAR     74  71  91 CALM      29.92S
NEWPORT        CLEAR     77  72  84 CALM      29.94R
WALNUT RIDGE   PTCLDY    75  70  83 CALM      29.93R
BLYTHEVILLE    PTCLDY    77  74  90 S5        29.93S
$$

ARZ022-023-033-042-044-040900-
CENTRAL ARKANSAS

CITY           SKY/WX    TMP DP  RH WIND       PRES   REMARKS
LITTLE ROCK    PTCLDY    77  70  79 CALM      29.93S
N LITTLE ROCK    N/A     78  69  73 SW3       29.93S
JACKSONVILLE   CLEAR     71  69  91 CALM      29.93R
SEARCY         CLEAR     72  70  93 CALM      29.95R
HOT SPRINGS    PTCLDY    75  67  76 CALM      29.95R
RUSSELLVILLE   CLEAR     71  68  90 CALM      29.93S
$$

ARZ036-040900-
EAST ARKANSAS

CITY           SKY/WX    TMP DP  RH WIND       PRES   REMARKS
WEST MEMPHIS   PTCLDY    74  73  97 S3        29.92S
$$

ARZ050-053-066-070-073-040900-
SOUTHWEST ARKANSAS

CITY           SKY/WX    TMP DP  RH WIND       PRES   REMARKS
ARKADELPHIA    FAIR      72  71  96 CALM      29.94R
CAMDEN         PTCLDY    72  68  88 CALM      29.92S
TEXARKANA      CLEAR     75  67  76 CALM      29.93R
EL DORADO      CLEAR     73  67  81 CALM      29.94R
DE QUEEN       CLEAR     71  70  96 CALM      29.91S
$$

ARZ056-057-069-040900-
SOUTHEAST ARKANSAS

CITY           SKY/WX    TMP DP  RH WIND       PRES   REMARKS
PINE BLUFF     MOCLDY    74  71  91 CALM      29.93S
STUTTGART      PTCLDY    79  72  78 CALM      29.93S
MONTICELLO     CLEAR     72  70  93 CALM      29.93R

$$




USA.gov is the U.S. government's official web portal to all federal, state and local government web resources and services.